BMCB-19 Weather Reports


time (UTC)temp
F
wind
direction
speed
knots
gust
knots
rain 1hr
in
rain 24hr
in
rain mn
in
humidity
%
barometer
mb
20260902014527 53 0 0.0 0.0 0.00 0.00 0.00 90 1022.7
20260902012527 52 0 0.0 0.0 0.00 0.00 0.00 91 1022.8
20260902011528 53 0 0.0 0.0 0.00 0.00 0.00 91 1022.7
20260902005530 53 0 0.0 0.0 0.00 0.00 0.00 91 1022.9
20260902004530 52 0 0.0 0.0 0.00 0.00 0.00 91 1022.9
20260902003529 52 0 0.0 0.0 0.00 0.00 0.00 91 1023.0
20260902002530 52 0 0.0 0.0 0.00 0.00 0.00 90 1022.9
20260902001530 52 0 0.0 0.0 0.00 0.00 0.00 90 1022.9
20260902000540 52 0 0.0 0.0 0.00 0.00 0.00 89 1022.9
20260901235540 53 0 0.0 0.0 0.00 0.00 0.00 89 1022.9
20260901234543 53 0 0.0 0.0 0.00 0.00 0.00 89 1022.8
20260901233543 53 0 0.0 0.0 0.00 0.00 0.00 89 1022.8
20260901232542 53 0 0.0 0.0 0.00 0.00 0.00 88 1022.9
20260901231543 54 0 0.0 0.0 0.00 0.00 0.00 87 1022.9
20260901230545 54 0 0.0 0.0 0.00 0.00 0.00 86 1023.0
20260901224541 54 0 0.0 0.0 0.00 0.00 0.00 87 1023.0
20260901223541 54 0 0.0 0.0 0.00 0.00 0.00 86 1023.1
20260901222537 54 0 0.0 0.0 0.00 0.00 0.00 86 1023.1
20260901221539 55 0 0.0 0.0 0.00 0.00 0.00 85 1023.1
20260901220539 55 0 0.0 0.0 0.00 0.00 0.00 84 1023.1
20260901214539 57 0 0.0 0.0 0.00 0.00 0.00 83 1023.0
20260901213537 58 0 0.0 0.0 0.00 0.00 0.00 80 1023.0
20260901212539 59 0 0.0 0.0 0.00 0.00 0.00 79 1023.1
20260901210536 59 0 0.0 0.0 0.00 0.00 0.00 77 1023.1
20260901205534 60 0 0.0 0.0 0.00 0.00 0.00 76 1023.1
20260901204538 60 0 0.0 0.0 0.00 0.00 0.00 76 1023.0
20260901203536 60 0 0.0 0.0 0.00 0.00 0.00 76 1023.0
20260901202536 60 0 0.0 0.0 0.00 0.00 0.00 76 1022.9
20260901200537 60 0 0.0 0.0 0.00 0.00 0.00 75 1022.9
20260901192532 57 0 0.0 0.0 0.00 0.00 0.00 80 1022.7
20260901191532 57 0 0.0 0.0 0.00 0.00 0.00 79 1022.6
20260901190532 58 0 0.0 0.0 0.00 0.00 0.00 78 1022.7
20260901185531 58 0 0.0 0.0 0.00 0.00 0.00 76 1022.6
20260901184532 59 0 0.0 0.0 0.00 0.00 0.00 75 1022.5
20260901181531 62 0 0.0 0.0 0.00 0.00 0.00 69 1022.2
20260901180530 63 0 0.0 0.0 0.00 0.00 0.00 65 1022.2
20260901175531 64 0 0.0 0.0 0.00 0.00 0.00 63 1022.1
20260901174530 65 0 0.0 0.0 0.00 0.00 0.00 61 1022.1
20260901172531 66 0 0.0 0.0 0.00 0.00 0.00 61 1022.1
20260901171531 66 0 0.0 0.0 0.00 0.00 0.00 60 1022.0
20260901165531 68 0 0.0 0.0 0.00 0.00 0.00 58 1021.8
20260901164530 68 0 0.0 0.0 0.00 0.00 0.00 58 1021.7
20260901163529 68 0 0.0 0.0 0.00 0.00 0.00 58 1021.7
20260901162530 68 0 0.0 0.0 0.00 0.00 0.00 59 1021.7
20260901161529 68 0 0.0 0.0 0.00 0.00 0.00 58 1021.8
20260901160529 69 0 0.0 0.0 0.00 0.00 0.00 56 1021.6
20260901155528 69 0 0.0 0.0 0.00 0.00 0.00 56 1021.7
20260901154530 68 0 0.0 0.0 0.00 0.00 0.00 58 1021.8
20260901153529 69 0 0.0 0.0 0.00 0.00 0.00 56 1021.7
20260901152529 69 0 0.0 0.0 0.00 0.00 0.00 55 1021.7
20260901151529 69 0 0.0 0.0 0.00 0.00 0.00 55 1021.7
20260901145529 69 0 0.0 0.0 0.00 0.00 0.00 55 1021.7
20260901144529 70 0 0.0 0.0 0.00 0.00 0.00 55 1021.7
20260901143531 70 0 0.0 0.0 0.00 0.00 0.00 57 1021.6
20260901142529 70 0 0.0 0.0 0.00 0.00 0.00 56 1021.7
20260901141529 70 0 0.0 0.0 0.00 0.00 0.00 56 1021.7
20260901140529 70 0 0.0 0.0 0.00 0.05 0.00 56 1021.7
20260901135529 69 0 0.0 0.0 0.00 0.06 0.00 56 1021.8
20260901134529 69 0 0.0 0.0 0.00 0.07 0.00 57 1021.8
20260901133529 69 0 0.0 0.0 0.00 0.07 0.00 59 1021.8
20260901132530 68 0 0.0 0.0 0.00 0.07 0.00 60 1022.0
20260901131529 69 0 0.0 0.0 0.00 0.07 0.00 59 1021.9
20260901130529 70 0 0.0 0.0 0.00 0.07 0.00 60 1022.0
20260901125529 70 0 0.0 0.0 0.00 0.07 0.00 60 1022.1
20260901124532 69 0 0.0 0.0 0.00 0.07 0.00 62 1022.1
20260901123529 69 0 0.0 0.0 0.00 0.07 0.00 63 1022.0
20260901122529 69 0 0.0 0.0 0.00 0.12 0.00 64 1022.1
20260901121529 69 0 0.0 0.0 0.00 0.14 0.00 64 1022.2
20260901120529 68 0 0.0 0.0 0.00 0.16 0.00 65 1022.1
20260901114529 69 0 0.0 0.0 0.00 0.16 0.00 65 1022.0
20260901113529 70 0 0.0 0.0 0.00 0.16 0.00 64 1021.9
20260901112529 69 0 0.0 0.0 0.00 0.16 0.00 65 1022.0
20260901111529 68 0 0.0 0.0 0.00 0.16 0.00 67 1022.2
20260901105529 66 0 0.0 0.0 0.00 0.16 0.00 70 1022.3
20260901104528 67 0 0.0 0.0 0.00 0.16 0.00 71 1022.3
20260901103532 68 0 0.0 0.0 0.00 0.16 0.00 69 1022.1
20260901102529 66 0 0.0 0.0 0.00 0.16 0.00 72 1022.2
20260901100529 65 0 0.0 0.0 0.00 0.16 0.00 74 1022.4
20260901095529 65 0 0.0 0.0 0.00 0.16 0.00 75 1022.4
20260901094529 65 0 0.0 0.0 0.00 0.16 0.00 74 1022.3
20260901093529 64 0 0.0 0.0 0.00 0.16 0.00 76 1022.3
20260901092530 64 0 0.0 0.0 0.00 0.16 0.00 79 1022.3
20260901091529 63 0 0.0 0.0 0.00 0.16 0.00 81 1022.3
20260901090529 63 0 0.0 0.0 0.00 0.16 0.00 82 1022.3
20260901084531 63 0 0.0 0.0 0.00 0.16 0.00 82 1022.2
20260901083529 63 0 0.0 0.0 0.00 0.16 0.00 82 1022.0
20260901082529 63 0 0.0 0.0 0.00 0.16 0.00 82 1021.9
20260901081529 63 0 0.0 0.0 0.00 0.16 0.00 83 1021.9
20260901080529 63 0 0.0 0.0 0.00 0.16 0.00 83 1021.9
20260901075529 62 0 0.0 0.0 0.00 0.16 0.00 85 1021.8
20260901074530 61 0 0.0 0.0 0.00 0.16 0.00 86 1021.8
20260901073529 60 0 0.0 0.0 0.00 0.16 0.00 87 1021.7
20260901072529 60 0 0.0 0.0 0.00 0.16 0.00 88 1021.7
20260901071532 60 0 0.0 0.0 0.00 0.16 0.00 88 1021.7
20260901070529 60 0 0.0 0.0 0.00 0.16 0.00 89 1021.6
20260901065530 59 0 0.0 0.0 0.00 0.16 0.00 89 1021.7
20260901064530 59 0 0.0 0.0 0.00 0.16 0.00 90 1021.6
20260901063531 59 0 0.0 0.0 0.00 0.16 0.00 90 1021.6
20260901061530 59 0 0.0 0.0 0.00 0.16 0.00 91 1021.5
20260901060530 58 0 0.0 0.0 0.00 0.16 0.00 92 1021.5
20260901055530 58 0 0.0 0.0 0.00 0.16 0.00 92 1021.4
20260901054529 57 0 0.0 0.0 0.00 0.16 0.00 92 1021.4
20260901052530 57 0 0.0 0.0 0.00 0.16 0.00 92 1021.2
20260901051530 58 0 0.0 0.0 0.00 0.16 0.00 92 1021.1
20260901045530 58 0 0.0 0.0 0.00 0.16 0.00 92 1021.1
20260901044530 58 0 0.0 0.0 0.00 0.16 0.00 92 1021.1
20260901043530 58 0 0.0 0.0 0.00 0.16 0.00 92 1021.0
20260901041530 57 0 0.0 0.0 0.00 0.16 0.00 92 1020.9
20260901040529 57 0 0.0 0.0 0.00 0.16 0.00 92 1020.9
20260901034530 57 0 0.0 0.0 0.00 0.16 0.00 91 1020.7
20260901033530 57 0 0.0 0.0 0.00 0.16 0.00 91 1020.7
20260901032530 57 0 0.0 0.0 0.00 0.16 0.00 91 1020.6
20260901031530 57 0 0.0 0.0 0.00 0.16 0.00 91 1020.6
20260901030530 57 0 0.0 0.0 0.00 0.16 0.00 91 1020.6
20260901025533 57 0 0.0 0.0 0.00 0.16 0.00 91 1020.6
20260901024530 57 0 0.0 0.0 0.00 0.16 0.00 91 1020.6
20260901023530 57 0 0.0 0.0 0.00 0.16 0.00 91 1020.7
20260901022530 57 0 0.0 0.0 0.00 0.16 0.00 91 1020.7
20260901021530 57 0 0.0 0.0 0.00 0.16 0.00 91 1020.7
20260901020530 57 0 0.0 0.0 0.00 0.16 0.00 91 1020.6
20260901015530 57 0 0.0 0.0 0.00 0.16 0.00 91 1020.7